{"data":{"norad_id":60909,"epoch":"2026-05-25T04:24:13.670784Z","epoch_age_seconds":62268,"freshness":"FRESH","line1":"1 60909U 24154G   26145.18349156  .00000287  00000+0  72318-5 0  9997","line2":"2 60909  53.1603 114.5404 0001271  97.1501 262.9661 15.69700379100524","mean_motion":15.69700379,"eccentricity":0.0001271,"inclination_deg":53.1603,"raan_deg":114.5404,"arg_perigee_deg":97.1501,"mean_anomaly_deg":262.9661,"bstar":7.2318e-6,"rev_number":10052,"period_min":91.737252488744,"perigee_km":358.89789619771,"apogee_km":360.61066816164,"semimajor_km":6737.8912821797,"source":"CELESTRAK","updated_at":"2026-05-25T13:38:19.313290Z"}}